Hourly Weather Kizhevatovo

Today, 25 July, Sunday

Time Temperature Precipitation Wind Pressure Humidity
00:00 +14°C° 0 mm 2 mps 743 mmHg 85%
01:00 +13°C° 0 mm 1 mps 743 mmHg 85%
02:00 +13°C° 0 mm 1 mps 743 mmHg 86%
03:00 +13°C° 0 mm 1 mps 744 mmHg 87%
04:00 +13°C° 0 mm 1 mps 744 mmHg 84%
05:00 +14°C° 0 mm 1 mps 744 mmHg 81%
06:00 +14°C° 0 mm 1 mps 745 mmHg 79%
07:00 +16°C° 0 mm 1 mps 745 mmHg 70%
08:00 +18°C° 0 mm 2 mps 745 mmHg 62%
09:00 +20°C° 0 mm 2 mps 746 mmHg 54%
10:00 +20°C° 0 mm 2 mps 746 mmHg 50%
11:00 +21°C° 0 mm 2 mps 746 mmHg 45%
12:00 +23°C° 0 mm 2 mps 746 mmHg 41%
13:00 +23°C° 0 mm 2 mps 746 mmHg 43%
14:00 +21°C° 0 mm 2 mps 746 mmHg 45%
15:00 +21°C° 0 mm 2 mps 746 mmHg 48%
16:00 +20°C° 0 mm 2 mps 747 mmHg 51%
17:00 +20°C° 0 mm 2 mps 747 mmHg 53%
18:00 +19°C° 0 mm 2 mps 747 mmHg 56%
19:00 +19°C° 0 mm 1 mps 747 mmHg 57%
20:00 +19°C° 0 mm 1 mps 747 mmHg 57%
21:00 +18°C° 0 mm 1 mps 747 mmHg 57%
22:00 +18°C° 0 mm 1 mps 747 mmHg 58%
23:00 +15°C° 0 mm 0 mps 748 mmHg 58%

Tomorrow, 26 July, Monday

Time Temperature Precipitation Wind Pressure Humidity
00:00 +15°C° 0 mm 0 mps 748 mmHg 58%
01:00 +15°C° 0 mm 0 mps 748 mmHg 58%
02:00 +15°C° 0 mm 0 mps 748 mmHg 58%
03:00 +15°C° 0 mm 0 mps 748 mmHg 58%
04:00 +15°C° 0 mm 0 mps 748 mmHg 60%
05:00 +15°C° 0 mm 0 mps 748 mmHg 62%
06:00 +15°C° 0 mm 0 mps 749 mmHg 64%
07:00 +19°C° 0 mm 1 mps 749 mmHg 58%
08:00 +21°C° 0 mm 1 mps 749 mmHg 52%
09:00 +22°C° 0 mm 1 mps 749 mmHg 47%
10:00 +23°C° 0 mm 1 mps 749 mmHg 43%
11:00 +24°C° 0 mm 2 mps 749 mmHg 39%
12:00 +25°C° 0 mm 2 mps 749 mmHg 35%
13:00 +24°C° 0 mm 2 mps 749 mmHg 38%
14:00 +24°C° 0 mm 2 mps 748 mmHg 41%
15:00 +24°C° 0 mm 2 mps 748 mmHg 45%
16:00 +23°C° 0 mm 2 mps 748 mmHg 47%
17:00 +23°C° 0 mm 2 mps 748 mmHg 50%
18:00 +23°C° 0 mm 1 mps 748 mmHg 53%
19:00 +22°C° 0 mm 1 mps 748 mmHg 53%
20:00 +21°C° 0 mm 1 mps 748 mmHg 53%
21:00 +18°C° 0 mm 0 mps 748 mmHg 54%
22:00 +17°C° 0 mm 0 mps 748 mmHg 55%
23:00 +18°C° 0 mm 1 mps 748 mmHg 57%

Day after tomorrow, 27 July, Tuesday

Time Temperature Precipitation Wind Pressure Humidity
00:00 +18°C° 0 mm 1 mps 748 mmHg 58%
01:00 +18°C° 0 mm 1 mps 748 mmHg 58%
02:00 +18°C° 0 mm 1 mps 748 mmHg 58%
03:00 +18°C° 0 mm 1 mps 747 mmHg 58%
04:00 +18°C° 0 mm 1 mps 748 mmHg 60%
05:00 +18°C° 0 mm 1 mps 748 mmHg 62%
06:00 +19°C° 0 mm 1 mps 748 mmHg 64%
07:00 +19°C° 0 mm 2 mps 747 mmHg 58%
08:00 +21°C° 0 mm 2 mps 747 mmHg 53%
09:00 +24°C° 0 mm 2 mps 747 mmHg 48%
10:00 +25°C° 0 mm 2 mps 747 mmHg 44%
11:00 +26°C° 0 mm 3 mps 747 mmHg 41%
12:00 +27°C° 0 mm 3 mps 747 mmHg 37%
13:00 +26°C° 0 mm 3 mps 746 mmHg 41%
14:00 +26°C° 0 mm 3 mps 746 mmHg 45%
15:00 +25°C° 0 mm 3 mps 746 mmHg 48%
16:00 +25°C° 0 mm 2 mps 746 mmHg 51%
17:00 +24°C° 0 mm 2 mps 745 mmHg 53%
18:00 +24°C° 0 mm 2 mps 745 mmHg 56%
19:00 +23°C° 0 mm 2 mps 745 mmHg 60%
20:00 +21°C° 0 mm 2 mps 745 mmHg 63%
21:00 +20°C° 0 mm 1 mps 745 mmHg 67%
22:00 +20°C° 0 mm 1 mps 745 mmHg 69%
23:00 +19°C° 0 mm 1 mps 745 mmHg 71%

28 July, Wednesday

Time Temperature Precipitation Wind Pressure Humidity
00:00 +18°C° 0 mm 1 mps 745 mmHg 73%
01:00 +18°C° 0 mm 1 mps 745 mmHg 74%
02:00 +16°C° 0 mm 1 mps 745 mmHg 75%
03:00 +16°C° 0 mm 1 mps 745 mmHg 76%
04:00 +16°C° 0 mm 0 mps 745 mmHg 73%
05:00 +16°C° 0 mm 0 mps 745 mmHg 70%
06:00 +17°C° 0 mm 0 mps 745 mmHg 66%
07:00 +19°C° 0 mm 0 mps 745 mmHg 60%
08:00 +23°C° 0 mm 1 mps 745 mmHg 54%
09:00 +25°C° 0 mm 1 mps 745 mmHg 48%
10:00 +26°C° 0 mm 2 mps 745 mmHg 45%
11:00 +27°C° 0 mm 2 mps 744 mmHg 42%
12:00 +28°C° 0 mm 3 mps 744 mmHg 39%
13:00 +28°C° 0 mm 2 mps 744 mmHg 41%
14:00 +28°C° 0 mm 2 mps 743 mmHg 42%
15:00 +28°C° 0 mm 2 mps 743 mmHg 44%
16:00 +27°C° 0 mm 2 mps 743 mmHg 48%
17:00 +26°C° 0 mm 2 mps 743 mmHg 52%
18:00 +25°C° 0 mm 1 mps 742 mmHg 56%
19:00 +24°C° 0 mm 1 mps 742 mmHg 58%
20:00 +23°C° 0 mm 2 mps 742 mmHg 60%
21:00 +20°C° 0 mm 2 mps 741 mmHg 61%
22:00 +20°C° 0 mm 2 mps 741 mmHg 62%
23:00 +20°C° 0 mm 2 mps 741 mmHg 63%

29 July, Thursday

Time Temperature Precipitation Wind Pressure Humidity
00:00 +19°C° 0 mm 2 mps 741 mmHg 64%
01:00 +19°C° 0.1 mm 2 mps 740 mmHg 68%
02:00 +19°C° 0.1 mm 3 mps 740 mmHg 72%
03:00 +18°C° 0.1 mm 3 mps 740 mmHg 77%
04:00 +18°C° 0.6 mm 3 mps 739 mmHg 82%
05:00 +18°C° 0.6 mm 3 mps 739 mmHg 88%
06:00 +17°C° 0.6 mm 2 mps 738 mmHg 94%
07:00 +18°C° 0.4 mm 3 mps 738 mmHg 91%
08:00 +19°C° 0.4 mm 3 mps 738 mmHg 88%
09:00 +19°C° 0.4 mm 4 mps 738 mmHg 85%
10:00 +20°C° 0.2 mm 4 mps 737 mmHg 84%
11:00 +21°C° 0.2 mm 3 mps 737 mmHg 83%
12:00 +22°C° 0.2 mm 3 mps 737 mmHg 83%
13:00 +22°C° 1.5 mm 3 mps 736 mmHg 82%
14:00 +22°C° 1.5 mm 3 mps 736 mmHg 82%
15:00 +24°C° 1.5 mm 3 mps 736 mmHg 82%
16:00 +24°C° 0.9 mm 3 mps 736 mmHg 83%
17:00 +24°C° 0.9 mm 2 mps 736 mmHg 84%
18:00 +24°C° 0.9 mm 2 mps 736 mmHg 85%
19:00 +21°C° 0.3 mm 2 mps 736 mmHg 88%
20:00 +21°C° 0.3 mm 1 mps 736 mmHg 91%
21:00 +20°C° 0.3 mm 1 mps 736 mmHg 94%
22:00 +20°C° 0 mm 1 mps 736 mmHg 95%
23:00 +19°C° 0 mm 1 mps 736 mmHg 96%

30 July, Friday

Time Temperature Precipitation Wind Pressure Humidity
00:00 +19°C° 0 mm 1 mps 736 mmHg 97%
01:00 +17°C° 0 mm 2 mps 736 mmHg 98%
02:00 +17°C° 0 mm 2 mps 736 mmHg 98%
03:00 +17°C° 0 mm 2 mps 736 mmHg 98%
04:00 +17°C° 0 mm 2 mps 737 mmHg 97%
05:00 +17°C° 0 mm 2 mps 737 mmHg 96%
06:00 +18°C° 0 mm 2 mps 737 mmHg 95%
07:00 +18°C° 0 mm 2 mps 738 mmHg 92%
08:00 +19°C° 0 mm 2 mps 738 mmHg 89%
09:00 +19°C° 0 mm 3 mps 738 mmHg 87%
10:00 +20°C° 0 mm 2 mps 738 mmHg 82%
11:00 +21°C° 0 mm 2 mps 739 mmHg 78%
12:00 +23°C° 0 mm 2 mps 739 mmHg 73%
13:00 +24°C° 0 mm 2 mps 739 mmHg 67%
14:00 +25°C° 0 mm 2 mps 739 mmHg 61%
15:00 +27°C° 0 mm 2 mps 739 mmHg 54%
16:00 +27°C° 0 mm 2 mps 739 mmHg 56%
17:00 +27°C° 0 mm 1 mps 739 mmHg 58%
18:00 +27°C° 0 mm 1 mps 739 mmHg 60%
19:00 +25°C° 0 mm 1 mps 739 mmHg 66%
20:00 +23°C° 0 mm 1 mps 739 mmHg 71%
21:00 +19°C° 0 mm 0 mps 740 mmHg 76%
22:00 +21°C° 0 mm 1 mps 740 mmHg 75%
23:00 +22°C° 0 mm 1 mps 740 mmHg 75%
Show more